Midland City, AL

4:12 AM CST on February 12, 2016 (GMT -0600)
Dothan Regional

Weather History for KDHN - August, 2013

Change the Weather History Date:

Wednesday, August 28, 2013

  Actual Average Record
Temperature  
Mean Temperature 79 °F 80 °F  
Max Temperature 89 °F 91 °F 101 °F (1954)
Min Temperature 68 °F 70 °F 37 °F (1996)
Cooling Degree Days 14 15  
Month to date cooling degree days 425 455  
Year to date cooling degree days 1704 1836  
Since 1 June cooling degree days 1332 1423  
Growing Degree Days 28 (Base 50)    
Moisture  
Dew Point 68 °F    
Average Humidity 74    
Maximum Humidity 96    
Minimum Humidity 48    
Precipitation  
Precipitation 0.00 in 0.13 in 0.59 in (1967)
Month to date precipitation 8.26 4.12  
Year to date precipitation 57.72 38.03  
Sea Level Pressure  
Sea Level Pressure 30.06 in    
Wind  
Wind Speed 2 mph (North)    
Max Wind Speed 7 mph    
Max Gust Speed -    
Visibility 10 miles    
Events      
T = Trace of Precipitation, MM = Missing Value Source: NWS Daily Summary

Daily Weather History Graph

Daily Weather History Graph

Search for Another Location

Airport or City:

Trip Planner

Search our weather history database for the weather conditions in past years. The results will help you decide how hot, cold, wet, or windy it might be!

Date:

Astronomy

Aug. 28, 2013 Rise Set
Actual Time 6:15 AM CDT 7:09 PM CDT
Civil Twilight 5:50 AM CDT 7:34 PM CDT
Nautical Twilight 5:21 AM CDT 8:04 PM CDT
Astronomical Twilight 4:50 AM CDT 8:34 PM CDT
Moon No Moon Rise 1:36 PM CDT (8/28)
Length of Visible Light 13h 44m
Length of Day
12h 54m
Waning Gibbous, 47% of the Moon is Illuminated
Aug 28
Waning Gibbous
Sep 5
New
Sep 12
First Quarter
Sep 19
Full
Sep 26
Last Quarter

Hourly Weather History & Observations

Time (CDT) Temp. Heat Index Dew Point Humidity Pressure Visibility Wind Dir Wind Speed Gust Speed Precip Events Conditions
12:53 AM 71.1 °F - 69.1 °F 93% 30.07 in 10.0 mi North 3.5 mph - N/A   Clear
1:53 AM 71.1 °F - 69.1 °F 93% 30.06 in 10.0 mi Calm Calm - N/A   Partly Cloudy
2:53 AM 70.0 °F - 68.0 °F 93% 30.05 in 10.0 mi Calm Calm - N/A   Clear
3:53 AM 70.0 °F - 68.0 °F 93% 30.05 in 10.0 mi NE 4.6 mph - N/A   Clear
4:53 AM 68.0 °F - 66.9 °F 96% 30.05 in 10.0 mi Calm Calm - N/A   Clear
5:53 AM 69.1 °F - 66.0 °F 90% 30.06 in 10.0 mi NNE 3.5 mph - N/A   Clear
6:53 AM 69.1 °F - 66.9 °F 93% 30.08 in 10.0 mi NNE 4.6 mph - N/A   Clear
7:53 AM 73.9 °F - 66.9 °F 79% 30.09 in 10.0 mi NE 3.5 mph - N/A   Clear
8:53 AM 79.0 °F - 68.0 °F 69% 30.10 in 10.0 mi NNE 6.9 mph - N/A   Clear
9:53 AM 82.0 °F 84.5 °F 66.9 °F 60% 30.11 in 10.0 mi Calm Calm - N/A   Clear
10:53 AM 84.0 °F 85.8 °F 64.9 °F 53% 30.12 in 10.0 mi Calm Calm - N/A   Mostly Cloudy
11:53 AM 84.9 °F 87.1 °F 66.0 °F 53% 30.10 in 10.0 mi Calm Calm - N/A   Overcast
12:53 PM 87.1 °F 89.9 °F 66.9 °F 51% 30.10 in 10.0 mi Calm Calm - N/A   Partly Cloudy
1:53 PM 88.0 °F 90.3 °F 66.0 °F 48% 30.08 in 10.0 mi WSW 3.5 mph - N/A   Scattered Clouds
2:53 PM 87.1 °F 89.9 °F 66.9 °F 51% 30.05 in 10.0 mi NNW 6.9 mph - N/A   Mostly Cloudy
3:53 PM 88.0 °F 91.4 °F 68.0 °F 51% 30.04 in 10.0 mi Variable 3.5 mph - N/A   Clear
4:53 PM 87.1 °F 89.9 °F 66.9 °F 51% 30.03 in 10.0 mi NW 5.8 mph - N/A   Clear
5:53 PM 86.0 °F 88.8 °F 66.9 °F 53% 30.02 in 10.0 mi NNW 5.8 mph - N/A   Clear
6:53 PM 82.9 °F 87.0 °F 70.0 °F 65% 30.03 in 10.0 mi NNW 3.5 mph - N/A   Clear
7:53 PM 78.1 °F - 73.0 °F 84% 30.03 in 10.0 mi Calm Calm - N/A   Clear
8:53 PM 75.9 °F - 72.0 °F 87% 30.05 in 10.0 mi Calm Calm - N/A   Clear
9:53 PM 73.9 °F - 71.1 °F 91% 30.06 in 10.0 mi Calm Calm - N/A   Clear
10:53 PM 73.9 °F - 70.0 °F 87% 30.06 in 10.0 mi Calm Calm - N/A   Clear
11:53 PM 72.0 °F - 70.0 °F 93% 30.06 in 10.0 mi Calm Calm - N/A   Clear